Basrah, Iraq

12:29 PM AST on February 24, 2017 (GMT +0300)
Basrah International

Weather History for ORMM - February, 2013

Change the Weather History Date:

Monday, February 11, 2013

  Actual Average Record
Temperature  
Mean Temperature 70 °F -  
Max Temperature 82 °F - - ()
Min Temperature 57 °F - - ()
Cooling Degree Days 4    
Growing Degree Days 20 (Base 50)    
Moisture  
Dew Point 49 °F    
Average Humidity 55    
Maximum Humidity 94    
Minimum Humidity 13    
Precipitation  
Precipitation 0.00 in - - ()
Sea Level Pressure  
Sea Level Pressure 29.87 in    
Wind  
Wind Speed 9 mph ()    
Max Wind Speed 26 mph    
Max Gust Speed -    
Visibility 4.4 miles    
Events      
T = Trace of Precipitation, MM = Missing Value Source: Averaged Metar Reports

Daily Weather History Graph

Daily Weather History Graph

Search for Another Location

Airport or City:

Trip Planner

Search our weather history database for the weather conditions in past years. The results will help you decide how hot, cold, wet, or windy it might be!

Date:

Astronomy

Feb. 11, 2013 Rise Set
Actual Time 6:32 AM AST 5:33 PM AST
Civil Twilight 6:08 AM AST 5:58 PM AST
Nautical Twilight 5:39 AM AST 6:26 PM AST
Astronomical Twilight 5:11 AM AST 6:54 PM AST
Moon 6:52 AM AST (2/11) 6:55 PM AST (2/11)
Length of Visible Light 11h 50m
Length of Day
11h 00m
New Moon, 1% of the Moon is Illuminated
Feb 11
New Moon
Feb 17
First Quarter
Feb 25
Full
Mar 5
Last Quarter
Mar 11
New

Hourly Weather History & Observations

Time (AST) Temp. Dew Point Humidity Pressure Visibility Wind Dir Wind Speed Gust Speed Precip Events Conditions
12:00 AM 65 °F 54 °F 58% 29.92 in 6 mi South 6.7 mph - -   Partly Cloudy
12:00 AM 62.6 °F 51.8 °F 68% 29.92 in - ESE 6.9 mph - N/A   Clear
1:00 AM 60.8 °F 53.6 °F 77% 29.92 in - SE 6.9 mph - N/A   Clear
2:00 AM 60.8 °F 53.6 °F 77% 29.92 in - SE 6.9 mph - N/A   Clear
3:00 AM 61 °F 56 °F 77% 29.91 in 6 mi SSE 6.7 mph - -   Clear
3:00 AM 60.8 °F 53.6 °F 77% 29.89 in 5.0 mi East 6.9 mph - N/A   Unknown
5:00 AM 57.2 °F 51.8 °F 82% 29.89 in 3.7 mi Calm Calm - N/A   Unknown
6:00 AM 60 °F 56 °F 81% 29.91 in 6 mi Calm Calm - -   Clear
6:00 AM 57.2 °F 53.6 °F 88% 29.89 in 3.7 mi Calm Calm - N/A   Unknown
7:00 AM 57.2 °F 55.4 °F 94% 29.92 in 2.2 mi Calm Calm - N/A   Mist
8:00 AM 59.0 °F 57.2 °F 94% 29.92 in - Calm Calm - N/A   Scattered Clouds
9:00 AM 63 °F 55 °F 67% 29.92 in 4 mi SSE 13.4 mph - -   Haze
9:00 AM - 57.2 °F N/A% 29.89 in 2.5 mi ESE 9.2 mph - N/A   Scattered Clouds
10:00 AM 68.0 °F 51.8 °F 56% 29.89 in 4.3 mi ESE 11.5 mph - N/A   Mostly Cloudy
11:00 AM 75.2 °F 46.4 °F 36% 29.89 in 6.2 mi ESE 11.5 mph - N/A   Scattered Clouds
12:00 PM 77 °F 47 °F 24% 29.87 in 3 mi South 20.1 mph - -   Blowing Sand
12:00 PM 78.8 °F 41.0 °F 26% 29.86 in 1.6 mi ESE 18.4 mph - N/A   Widespread Dust
1:00 PM 82.4 °F 33.8 °F 17% 29.83 in 0.9 mi ESE 20.7 mph - N/A   Widespread Dust
2:00 PM 82.4 °F 37.4 °F 20% 29.80 in 1.1 mi ESE 20.7 mph - N/A   Widespread Dust
3:00 PM 80 °F 38 °F 13% 29.79 in 6 mi SSE 9.2 mph - -   Partly Cloudy
3:00 PM 80.6 °F 37.4 °F 21% 29.77 in 3.7 mi ESE 20.7 mph - N/A   Partly Cloudy
4:00 PM 78.8 °F 39.2 °F 24% 29.77 in 5.0 mi ESE 26.5 mph - N/A   Partly Cloudy
5:00 PM 75.2 °F 39.2 °F 27% 29.77 in 5.0 mi ESE 23.0 mph - N/A   Partly Cloudy
6:00 PM 76 °F 41 °F 18% 29.77 in 6 mi South 15.7 mph - -   Clear
6:00 PM 73.4 °F 42.8 °F 33% 29.77 in 6.2 mi SE 20.7 mph - N/A   Scattered Clouds
7:00 PM 69.8 °F 48.2 °F 46% 29.77 in 6.2 mi East 13.8 mph - N/A   Partly Cloudy
8:00 PM 68.0 °F 53.6 °F 60% 30.09 in - SE 13.8 mph - N/A   Clear
9:00 PM 66 °F 55 °F 58% 29.81 in 6 mi SSE 15.7 mph - -  
9:00 PM 66.2 °F 55.4 °F 68% 30.09 in - SE 13.8 mph - N/A   Clear
10:00 PM 66.2 °F 57.2 °F 73% 29.80 in - SE 11.5 mph - N/A   Clear
11:00 PM 64.4 °F 57.2 °F 77% 29.80 in - SE 9.2 mph - N/A   Clear